Location: Acerno
(40.7333°N, 15.0500°E)
Time: 23:16:50
(UTC+00:00)

Daily predictions for brighter satellites

Satellite Brightness Start Highest point End
(mag) Time Altitude Azimuth Time Altitude Azimuth Time Altitude Azimuth
H-2A R/B 3.4 18:53:01 10° S 18:58:12 45° W 19:03:24 10° NNW
DMSP B5D2-2 4.1 18:53:13 10° NNE 18:58:26 74° ESE 19:03:37 10° S
SPOT 3 Rocket 3.6 19:02:58 10° SSE 19:08:08 68° ENE 19:13:21 10° N
Nadezhda 1 Rocket 4.1 19:01:47 10° N 19:08:12 71° E 19:14:32 10° SSE
Cosmos 1400 Rocket 3.4 19:06:11 10° N 19:09:55 39° ENE 19:13:34 10° SSE
MetOp-A 4.3 19:08:14 10° SSE 19:13:36 82° WSW 19:18:59 10° NNW
Cosmos 2219 Rocket 2.3 19:08:56 10° S 19:14:20 54° ESE 19:19:48 10° NNE
SL-08 ROCKET BODY 4.5 19:09:19 10° S 19:15:17 89° ESE 19:21:24 10° N
USA 215 4.5 19:11:51 10° E 19:15:49 17° ESE 19:19:46 10° SSE
Cosmos 1844 3.8 19:10:40 10° NNW 19:16:25 72° ENE 19:22:05 10° SSE
Meteor 2-10 Rocket 3.7 19:12:28 10° NNW 19:17:41 81° W 19:23:05 10° S
Cosmos 2322 3.8 19:11:58 10° SSW 19:17:41 87° ESE 19:23:27 10° NNE
COSMOS 2428 2.9 19:14:00 10° S 19:19:28 53° ESE 19:24:58 10° NNE
Cosmos 2360 Rocket 3.4 19:14:16 10° SW 19:19:43 49° WNW 19:25:13 10° NNE
Cosmos 2237 Rocket 3.5 19:15:50 10° SE 19:19:49 20° E 19:23:49 10° NE
Cosmos 1538 Rocket 4.3 19:16:50 10° S 19:21:58 49° ESE 19:27:05 10° NNE
Cosmos 773 Rocket 4.0 19:17:10 10° SSW 19:22:27 79° ESE 19:27:45 10° NNE
CZ-2C R/B 3.1 19:17:14 10° N 19:22:33 67° WNW 19:27:43 10° SSW
Cosmos 1758 Rocket 3.6 19:19:58 10° S 19:24:28 89° W 19:28:59 10° N
Cosmos 1703 3.3 19:25:50 10° S 19:29:41 83° W 19:33:36 10° N
Cosmos 2333 4.4 19:24:16 10° SSW 19:29:53 78° WNW 19:35:37 10° NNE
Cosmos 1328 3.8 19:26:59 10° S 19:30:56 88° E 19:34:56 10° N
Resurs 01 Rocket 1.6 19:28:27 10° SSE 19:32:51 80° ENE 19:37:16 10° N
ATLAS 5 CENTAUR R/B 4.1 19:31:38 10° W 19:35:07 25° NW 19:38:57 10° NNE
IGS 5A 4.3 19:33:32 14° SE 19:36:35 34° ENE 19:40:21 10° N
Alouette 2 Rocket 4.0 19:39:09 10° N 19:43:29 80° E 19:49:57 10° SSE
Cosmos 2333 Rocket 2.4 19:38:44 10° SSW 19:44:25 80° WNW 19:50:10 10° NNE
BREEZE-M DEB (TANK) 2.9 19:39:25 10° SW 19:46:50 62° SSE 19:49:21 10° ENE
Cosmos 1953 Rocket 3.5 19:44:05 10° S 19:48:23 88° ESE 19:52:45 10° N
Cosmos 1844 Rocket 3.4 19:44:30 10° NW 19:49:51 48° WSW 19:55:10 10° S
Spot 2 Rocket 3.6 19:50:22 17° SSE 19:54:18 62° ENE 19:59:21 10° N
USA 245 3.5 19:53:01 21° SE 19:55:19 57° ENE 19:59:47 10° N
DELTA 2 R/B (1) 3.5 19:50:43 10° WSW 19:56:16 72° S 20:01:50 10° E
Hubble Space Telescope 2.7 19:55:09 10° SSW 19:57:04 14° S 19:57:04 14° S
Cosmos 2278 Rocket 2.9 19:52:59 10° N 19:58:19 41° ENE 20:01:55 19° ESE
NOSS 0 Rocket 3.9 19:54:19 10° S 20:00:20 60° ESE 20:06:23 10° NNE
Cosmos 1842 Rocket 4.3 19:56:34 10° N 20:00:35 35° ENE 20:02:35 23° SE
Cosmos 2058 4.2 20:01:44 21° ESE 20:02:48 23° E 20:06:05 10° NE
Landsat 7 3.8 20:01:16 20° SSE 20:04:33 72° ENE 20:09:19 10° N
Cosmos 44 4.1 20:06:36 23° ESE 20:06:46 23° ESE 20:10:13 10° ENE
SL-16 R/B 3.7 20:07:16 17° ESE 20:07:54 17° E 20:11:31 10° ENE
Cosmos 2074 Rocket 4.2 20:05:56 18° SSE 20:10:22 51° E 20:16:21 10° NNE
Atlas Centaur 2 3.7 20:13:13 10° WSW 20:16:55 19° SSW 20:18:17 17° S
Cosmos 1680 Rocket 3.7 20:13:54 19° S 20:17:30 51° ESE 20:22:38 10° NNE
Cosmos 2181 Rocket 4.0 20:12:35 10° N 20:18:55 86° W 20:23:37 18° S
SPOT 5 3.2 20:18:43 27° SE 20:21:04 49° ENE 20:25:37 10° N
CARTOSAT-1 3.8 20:19:30 31° SE 20:21:20 54° ENE 20:25:33 10° N
NOSS 3-4 (A) 4.3 20:17:18 10° NNW 20:24:08 52° NE 20:29:09 21° ESE
NOSS 3-4 (C) 4.4 20:17:25 10° NNW 20:24:15 51° NE 20:29:15 21° ESE
BREEZE M DEB (TANK) 3.8 20:20:08 10° SW 20:24:16 70° SE 20:40:33 10° ENE
CZ-4B DEB 4.3 20:24:25 45° SE 20:25:18 71° ENE 20:28:39 10° N
Cosmos 1825 4.1 20:27:01 16° E 20:27:01 16° E 20:29:03 10° NE
Cosmos 2221 2.6 20:23:39 10° N 20:27:59 60° E 20:29:32 36° SE
USA 81 4.4 20:24:49 11° SSW 20:29:49 64° W 20:35:04 10° N
Cosmos 1315 Rocket 3.2 20:26:02 10° NNW 20:30:07 63° W 20:32:12 27° S
OAO 2 Rocket 4.3 20:25:41 10° WSW 20:30:22 32° SSW 20:31:38 29° S
ATLAS CENTAUR R/B 2.3 20:30:46 10° NW 20:34:02 32° WSW 20:35:13 26° SSW
IRIS 4.0 20:32:17 10° W 20:35:05 59° WSW 20:35:05 59° WSW
Cosmos 923 Rocket 4.1 20:31:40 10° SSW 20:36:55 81° WNW 20:42:14 10° NNE
Gbstr 26 Del rocket 2.6 20:33:48 10° SW 20:37:28 52° SE 20:41:10 10° ENE
SPOT 1/Viking Rocket 3.8 20:36:44 25° S 20:39:43 65° WSW 20:44:53 10° NNW
Gblst 52 Del rocket 4.3 20:35:22 10° WNW 20:41:05 76° SW 20:44:02 33° SE
GEOS 3 Rocket 3.7 20:37:41 10° NE 20:43:07 87° NW 20:48:30 10° SW
Cosmos 1980 3.9 20:40:41 10° SSW 20:46:18 73° WNW 20:51:58 10° NNE
Meteor 2-2 Rocket 4.2 20:44:49 10° N 20:50:36 86° W 20:53:11 34° S
ATLAS 2AS CENTAUR R/B 2.9 20:44:16 10° NNW 20:51:48 68° NE 20:55:18 32° SE
Terra 1.8 20:50:21 43° SE 20:51:50 72° ENE 20:56:35 10° N
Cosmos 2151 3.9 20:52:39 31° E 20:52:39 31° E 20:56:21 10° NNE
Aureole 2 Rocket 4.1 20:50:25 10° NNE 20:52:08 19° NE 20:52:08 19° NE
Cosmos 1610 Rocket 4.5 20:49:53 31° S 20:53:05 72° E 20:59:27 10° NNE
Lacrosse 5 rocket 4.1 20:52:51 10° N 20:54:29 12° NNE 20:56:04 10° NE
Cosmos 1408 2.6 20:55:56 58° ENE 20:55:56 58° ENE 20:59:16 10° NNE
Cosmos 1624 Rocket 4.4 20:52:12 10° N 20:57:17 49° ENE 20:58:46 38° ESE
Cosmos 1076 Rocket 3.4 20:56:10 49° S 20:57:17 89° ESE 21:01:35 10° N
Cosmos 158 Rocket 4.0 20:54:49 22° SSW 20:57:58 73° WNW 21:02:53 10° NNE
ERS-1 Rocket 3.3 20:56:37 33° SSW 20:58:46 61° W 21:03:46 10° NNW
TSX-5 4.2 20:55:32 10° NW 20:59:19 60° WSW 21:00:21 46° SSW
USA 215 3.1 20:52:56 10° NE 20:59:30 73° SE 21:06:01 10° SW
BREEZE-M R/B 4.4 20:51:56 10° WNW 21:01:38 47° SW 21:03:31 35° S
Cosmos 2237 Rocket 2.8 20:57:46 10° SW 21:03:22 57° WNW 21:09:00 10° NNE
Okean 3 Rocket 4.2 21:14:51 42° E 21:14:51 42° E 21:18:50 10° NNE
Iridium 2 3.8 21:15:46 10° N 21:19:17 66° NE 21:19:17 66° NE
Cosmos 1892 4.2 21:23:57 26° WSW 21:25:03 31° WNW 21:28:28 10° NNW
Cosmos 1371 Rocket 4.0 21:21:28 10° NNW 21:26:46 79° WSW 21:27:51 57° S
Cosmos 1943 Rocket 3.5 21:22:19 10° N 21:27:16 30° NE 21:29:11 24° E
Cosmos 2344 3.6 21:21:26 10° SW 21:28:59 75° NW 21:36:54 10° NNE
Cosmos 1151 Rocket 4.0 21:25:24 10° N 21:29:07 33° ENE 21:29:07 33° ENE
USA 267 4.3 21:24:47 13° E 21:30:07 41° NNE 21:36:10 10° NW
Thor Agena Rocket 3.5 21:29:35 10° NNE 21:34:36 57° ESE 21:34:47 57° ESE
Cosmos 2366 rocket 4.4 21:33:57 43° ESE 21:35:07 47° E 21:41:09 10° NNE
Cosmos 2218 Rocket 4.3 21:35:20 45° SE 21:36:32 51° E 21:42:35 10° NNE
Cosmos 1420 Rocket 4.2 21:31:43 10° NNW 21:36:57 58° ENE 21:37:45 52° ESE
Cosmos 1606 3.5 21:34:43 10° N 21:37:54 45° NE 21:37:54 45° NE
Cosmos 1408 Rocket 4.4 21:42:36 38° ENE 21:42:36 38° ENE 21:46:05 10° NNE
Cosmos 2278 Rocket 3.5 21:37:25 10° NW 21:42:11 28° WSW 21:43:46 24° SW
DELTA 2 R/B (1) 3.4 21:37:03 10° W 21:42:39 76° S 21:43:27 63° SE
Cosmos 332 Rocket 4.4 21:40:43 10° N 21:45:18 42° ENE 21:45:38 42° ENE
Cosmos 44 4.5 21:44:54 17° WSW 21:47:44 35° NW 21:51:48 10° NNE
Cosmos 1346 Rocket 4.4 21:49:51 26° NE 21:49:51 26° NE 21:52:06 10° NNE
Cosmos 1933 4.1 21:45:56 10° N 21:49:13 46° NE 21:49:13 46° NE
Cosmos 2297 3.6 21:44:15 10° NNW 21:50:01 90° NW 21:50:54 66° SSE
Cosmos 2056 Rocket 3.8 21:44:49 10° NNW 21:50:08 57° WSW 21:50:54 52° SW
SL-16 R/B 2.5 21:49:05 35° SW 21:51:25 64° WNW 21:57:05 10° NNE
Cosmos 1048 Rocket 4.4 21:55:54 49° E 21:55:54 49° E 22:00:40 10° NNE
Spot 4 3.7 21:55:58 76° E 21:56:04 77° ENE 22:00:50 10° N
Cosmos 1340 3.7 22:00:03 43° NNE 22:00:03 43° NNE 22:02:41 10° NNE
Cosmos 1825 3.8 22:01:49 28° WNW 22:01:50 28° WNW 22:05:10 10° NNW
ALOS 2 3.3 22:05:09 44° ENE 22:05:09 44° ENE 22:09:03 10° N
Cosmos 2341 Rocket 4.3 22:03:39 41° SW 22:05:39 59° W 22:11:48 10° N
SL-8 Rocket 3.9 22:04:58 55° SSW 22:06:22 78° W 22:12:33 10° N
COSMOS 2455 2.9 22:05:43 10° NNW 22:11:46 72° ENE 22:12:49 59° ESE
Cosmos 1633 4.3 22:13:47 29° NNE 22:13:47 29° NNE 22:15:45 10° NNE
Cosmos 371 Rocket 3.3 22:08:02 10° NNW 22:12:39 71° W 22:12:39 71° W
IRIDIUM 104 4.2 22:16:27 78° SW 22:16:42 80° W 22:21:57 10° N
Cosmos 1452 Rocket 3.3 22:11:28 10° NNW 22:16:45 87° ENE 22:16:53 85° ESE
GP-B 3.4 22:18:26 10° N 22:22:24 65° NW 22:22:24 65° NW
IRIDIUM 114 4.4 22:25:36 64° WSW 22:25:52 66° W 22:31:05 10° N
Cosmos 1603 3.6 22:26:58 70° ESE 22:26:59 70° ESE 22:32:41 10° NNE
Cosmos 1727 Rocket 3.9 22:22:08 10° N 22:28:25 79° E 22:29:19 66° SSE
Terra 4.3 22:29:14 11° W 22:30:03 11° W 22:31:35 10° WNW
Cosmos 2369 Rocket 2.3 22:25:37 10° NNW 22:31:12 65° ENE 22:31:45 61° E
Cosmos 1515 Rocket 3.9 22:27:01 10° N 22:30:39 61° NNW 22:30:39 61° NNW
Cosmos 1328 Rocket 4.4 22:28:25 10° NNW 22:31:54 43° WNW 22:31:54 43° WNW
RESURS DK-1 3.5 22:29:12 10° NNW 22:32:35 40° NE 22:32:35 40° NE
Helios 1A 4.1 22:34:29 37° NE 22:34:29 37° NE 22:37:47 10° N
Lacrosse 5 rocket 2.5 22:30:46 10° NW 22:33:47 39° N 22:33:47 39° N
SL-08 R/B 4.4 22:36:15 65° SSW 22:37:18 86° W 22:43:44 10° N
Meteor 2-3 Rocket 4.1 22:40:15 49° WSW 22:41:06 54° WNW 22:46:43 10° N
ATLAS 2AS CENTAUR R/B 4.0 22:36:24 10° WNW 22:42:00 24° WSW 22:42:43 24° WSW
USA 215 4.5 22:36:13 10° NE 22:42:12 39° NNW 22:48:10 10° W
Cosmos 304 Rocket 4.0 22:41:59 10° NNW 22:46:12 63° NW 22:46:12 63° NW
CZ-4C R/B 3.2 22:40:03 10° NNW 22:47:24 68° NE 22:50:52 38° SE
Sich 1 4.4 22:50:30 32° ENE 22:50:30 32° ENE 22:53:29 10° NNE
Meteor 2-6 Rocket 4.2 22:46:13 10° N 22:51:38 64° E 22:51:47 64° E
Cosmos 44 Rocket 3.5 22:55:47 61° NW 22:55:47 61° NW 23:00:15 10° NNE
Cosmos 1812 4.3 22:53:02 10° N 22:55:33 30° NE 22:55:33 30° NE
Cosmos 1743 Rocket 4.4 23:00:39 45° NW 23:00:39 45° NW 23:04:13 10° N
Cosmos 494 Rocket 4.1 23:00:38 68° WNW 23:00:40 68° WNW 23:05:50 10° NNE
ISS -1.3 23:05:32 23° N 23:05:32 23° N 23:07:27 10° NE
Meteor 1-10 Rocket 4.1 23:02:46 10° N 23:08:20 75° E 23:08:34 74° ESE
Cosmos 2263 4.1 23:03:39 10° NNW 23:09:26 86° WSW 23:09:39 83° SSW
Cosmos 1943 Rocket 2.9 23:05:51 10° NW 23:10:41 40° W 23:10:41 40° W
USA 267 3.1 23:12:07 63° S 23:12:52 69° SW 23:19:25 10° NW
Cosmos 2228 Rocket 3.8 23:08:51 10° NNW 23:12:32 49° NW 23:12:32 49° NW
USA 32 4.0 23:21:23 79° E 23:21:23 79° E 23:26:37 10° N
Cosmos 1943 3.7 23:23:21 45° W 23:24:20 50° WNW 23:29:50 10° NNE
Resurs 1-4 Rocket 4.1 23:21:09 10° NE 23:24:24 16° E 23:25:04 16° E
CZ-4 R/B 3.9 23:21:01 10° NNE 23:25:20 72° NE 23:25:20 72° NE
Cosmos 292 Rocket 4.3 23:21:41 10° N 23:26:21 50° ENE 23:26:27 50° ENE
Lacrosse 5 2.3 23:28:00 51° E 23:28:00 51° E 23:32:03 10° NE
Cosmos 1821 Rocket 4.2 23:26:32 51° WSW 23:27:22 55° W 23:33:21 10° N
Cosmos 1607 3.8 23:28:28 67° SW 23:29:22 82° WNW 23:35:41 10° NNE
Cosmos 1666 Rocket 4.0 23:32:39 58° NNE 23:32:39 58° NNE 23:36:16 10° N
Meteor 1-27 Rocket 3.7 23:28:42 10° N 23:34:21 76° E 23:34:54 70° SE
Cosmos 1331 Rocket 4.4 23:29:13 10° NNW 23:33:50 50° W 23:33:50 50° W
SeaSat 1 4.3 23:31:52 10° ENE 23:34:59 19° E 23:34:59 19° E
Cosmos 2123 Rocket 3.8 23:30:40 10° N 23:36:52 90° WNW 23:37:42 70° S
Cosmos 1535 Rocket 4.4 23:38:18 66° SSW 23:39:13 79° W 23:45:32 10° N
Cosmos 2251 Rocket 3.7 23:51:57 57° ESE 23:52:00 57° ESE 23:57:08 10° NNE
